Location: Linz
(48.3300°N, 14.3000°E)
Time: 21:21:13
(UTC+01:00)

Vanguard 1 - Visible Passes

Search period start: 22 January 2018 00:00
Search period end: 01 February 2018 00:00
Orbit: 649 x 3834 km, 34.2° (Epoch: 21 January)

Date Brightness Start Highest point End Pass type
(mag) Time Alt. Az. Time Alt. Az. Time Alt. Az.
22 Jan 12.9 02:34:30 32° SE 02:34:30 32° SE 02:44:36 10° ESE visible
22 Jan 12.7 04:47:13 27° SW 04:51:16 30° SSW 05:07:37 10° SSE visible
22 Jan 13.6 07:06:56 10° WSW 07:13:46 13° SW 07:21:29 10° SSW visible
23 Jan 12.8 02:54:25 32° SSE 02:54:25 32° SSE 03:05:22 10° SE visible
23 Jan 12.9 05:07:09 21° SW 05:12:13 25° SSW 05:26:59 10° SSE visible
24 Jan 12.8 03:14:22 31° S 03:14:22 31° S 03:25:52 10° SE visible
24 Jan 13.1 05:27:06 16° WSW 05:33:08 20° SSW 05:45:36 10° S visible
25 Jan 13.6 01:21:38 12° ESE 01:21:38 12° ESE 01:22:35 10° ESE visible
25 Jan 12.8 03:34:21 29° S 03:34:21 29° S 03:46:03 10° SE visible
25 Jan 13.3 05:47:05 11° WSW 05:54:01 15° SW 06:02:58 10° S visible
26 Jan 13.5 01:41:38 14° SE 01:41:38 14° SE 01:43:28 10° SE visible
26 Jan 12.9 03:54:22 25° SSW 03:54:22 25° SSW 04:05:47 10° SSE visible
27 Jan 13.5 02:01:39 15° SE 02:01:39 15° SE 02:04:08 10° SE visible
27 Jan 13.0 04:14:23 20° SSW 04:14:23 20° SSW 04:24:56 10° SSE visible
28 Jan 13.4 02:21:42 15° SSE 02:21:42 15° SSE 02:24:31 10° SE visible
28 Jan 13.2 04:34:26 16° SSW 04:34:41 16° SSW 04:43:05 10° S visible
29 Jan 13.4 02:41:45 15° SSE 02:41:45 15° SSE 02:44:32 10° SSE visible
29 Jan 13.3 04:54:30 11° SW 04:55:37 11° SSW 04:58:26 10° SSW visible
30 Jan 13.4 03:01:50 13° SSE 03:01:50 13° SSE 03:04:02 10° SSE visible
31 Jan 13.5 03:21:54 11° S 03:21:54 11° S 03:22:41 10° S visible
